TimeCST,TemperatureF,Dew PointF,Humidity,Sea Level PressureIn,VisibilityMPH,Wind Direction,Wind SpeedMPH,Gust SpeedMPH,PrecipitationIn,Events,Conditions,WindDirDegrees,DateUTC
12:53 AM,64.9,46.0,50,30.03,10.0,WNW,6.9,17.3,N/A,,Overcast,300,2013-11-18 06:53:00
1:15 AM,64.4,48.2,56,30.02,10.0,North,-9999.0,-,N/A,,Squalls,0,2013-11-18 07:15:00
1:53 AM,62.1,48.0,60,30.06,10.0,NNE,5.8,-,N/A,,Mostly Cloudy,20,2013-11-18 07:53:00
2:06 AM,60.8,46.4,59,30.04,10.0,North,-9999.0,-,N/A,,Scattered Clouds,0,2013-11-18 08:06:00
2:53 AM,57.0,50.0,77,30.07,10.0,North,4.6,-,N/A,,Partly Cloudy,10,2013-11-18 08:53:00
3:53 AM,57.0,43.0,59,30.08,10.0,North,6.9,-,N/A,,Mostly Cloudy,10,2013-11-18 09:53:00
4:53 AM,55.9,39.9,55,30.09,10.0,NNE,4.6,-,N/A,,Partly Cloudy,20,2013-11-18 10:53:00
5:53 AM,54.0,36.0,51,30.11,10.0,NNE,6.9,-,N/A,,Clear,20,2013-11-18 11:53:00
6:53 AM,51.1,37.9,61,30.12,10.0,North,6.9,-,N/A,,Clear,10,2013-11-18 12:53:00
7:53 AM,55.9,39.0,53,30.14,10.0,North,8.1,-,N/A,,Clear,360,2013-11-18 13:53:00
8:53 AM,59.0,37.9,46,30.17,10.0,North,13.8,-,N/A,,Clear,10,2013-11-18 14:53:00
9:53 AM,61.0,39.0,44,30.18,10.0,NNE,15.0,-,N/A,,Clear,20,2013-11-18 15:53:00
10:53 AM,63.0,41.0,45,30.19,10.0,NE,12.7,-,N/A,,Clear,40,2013-11-18 16:53:00
11:53 AM,66.0,39.9,38,30.18,10.0,NNE,13.8,-,N/A,,Clear,30,2013-11-18 17:53:00
12:53 PM,66.0,39.9,38,30.18,10.0,NNE,15.0,-,N/A,,Clear,20,2013-11-18 18:53:00
1:53 PM,66.0,39.0,37,30.17,10.0,NE,13.8,-,N/A,,Clear,40,2013-11-18 19:53:00
2:53 PM,66.0,39.9,38,30.17,10.0,NNE,13.8,-,N/A,,Clear,30,2013-11-18 20:53:00
3:53 PM,64.0,41.0,43,30.18,10.0,NE,12.7,-,N/A,,Clear,40,2013-11-18 21:53:00
4:53 PM,60.1,42.1,51,30.20,10.0,NNE,9.2,-,N/A,,Clear,30,2013-11-18 22:53:00
5:53 PM,55.9,44.1,64,30.21,10.0,NNE,6.9,-,N/A,,Clear,20,2013-11-18 23:53:00
6:53 PM,54.0,43.0,66,30.22,10.0,NNE,6.9,-,N/A,,Clear,20,2013-11-19 00:53:00
7:53 PM,51.1,39.9,66,30.23,10.0,North,5.8,-,N/A,,Clear,10,2013-11-19 01:53:00
8:53 PM,52.0,39.0,61,30.23,10.0,NNE,6.9,-,N/A,,Clear,30,2013-11-19 02:53:00
9:53 PM,51.1,39.0,63,30.23,10.0,NNE,5.8,-,N/A,,Clear,20,2013-11-19 03:53:00
10:53 PM,51.1,39.0,63,30.22,10.0,NE,6.9,-,N/A,,Clear,40,2013-11-19 04:53:00
11:53 PM,51.1,39.0,63,30.23,10.0,NE,8.1,-,N/A,,Clear,40,2013-11-19 05:53:00